Regional Weather Roundup
Issued by NWS Wakefield, VA

Current Version | Previous Version | Text Only | Print | Product List | Glossary On
Versions: 1 2 3 4 5 6 7 8 9 10 11 12 13 14 15 16 17 18 19 20 21 22 23 24 25 26 27
000
ASUS41 KAKQ 231315
RWRAKQ

REGIONAL WEATHER ROUNDUP
NATIONAL WEATHER SERVICE WAKEFIELD VA
900 AM EDT FRI JUN 23 2017

Note: "fair" indicates few or no clouds below 12,000 feet with no
significant weather and/or obstructions to visibility. * = Denotes
station may not report precipitation (e.g., rain,snow,etc.),
thunder or fog.

VAZ042-051-052>054-056-231400-
NORTHERN VIRGINIA

CITY           SKY/WX    TMP DP  RH WIND       PRES   REMARKS
WASH NATIONAL  CLOUDY    75  73  93 S13       29.86F
DULLES         CLOUDY    73  70  90 S9        29.85F
FORT BELVOIR   CLOUDY    75  72  88 S6        29.86F
QUANTICO       LGT RAIN  76  74  93 SW10      29.88S
FREDERICKSBRG* CLOUDY    76  76 100 SW10G17   29.88S
STAFFORD*      CLOUDY    74  74  99 SW6       29.92S
WARRENTON      CLOUDY    76  69  79 S9        29.86F
CULPEPER*      CLOUDY    77  73  88 SW14G21   29.87F
MANASSAS*      CLOUDY    75  72  90 S10G18    29.86F
LEESBURG*      CLOUDY    73  73 100 S7        29.86F
WINCHESTER     CLOUDY    70  68  94 SW8       29.84F
FRONT ROYAL*   CLOUDY    72  70  94 SW7       29.84F
LURAY*         CLOUDY    73  70  88 SW10      29.87F
$$

VAZ048-049-060>072-079>083-231400-
CENTRAL AND SOUTH CENTRAL VIRGINIA

CITY           SKY/WX    TMP DP  RH WIND       PRES   REMARKS
RICHMOND       CLOUDY    75  73  93 S15       29.93F
CHESTERFIELD*  LGT RAIN  75  72  90 SW5       29.94
PETERSBURG*    LGT RAIN  74  71  91 CALM      29.95F
HANOVER        CLOUDY    75  70  84 S10       29.93F
TAPPAHANNOCK*  CLOUDY    74  74 100 S8        29.92F
QUINTON*       CLOUDY    74  74 100 S6        29.93S
CHARLOTTSVILLE PTSUNNY   77  73  87 S14       29.88F
GORDONSVILLE*  CLOUDY    74  73  96 SW10G17   29.88F
ORANGE*        CLOUDY    73  70  88 SW9G20    29.88F
LOUISA*        CLOUDY    77  75  94 SW9       29.90S
BUMPASS*       CLOUDY    73  73 100 SW9       29.90F
FARMVILLE*     CLOUDY    75  71  87 SW12G17   29.92F
CREWE*         CLOUDY    75  71  87 SW6       29.95S
FORT PICKETT*  CLOUDY    75  72  88 SW13G22   29.97R
CHASE CITY*    CLOUDY    73  73  99 S3        29.97F
CLARKSVILLE*   CLOUDY    72  72 100 S6        29.97F
SOUTH HILL*    CLOUDY    74  73  94 SW10      30.04S
LAWRENCEVILLE* FAIR      75  72  88 MISG      29.97S
EMPORIA*       LGT RAIN  73  72  94 S6        29.99S
$$

VAZ088>098-231400-
SOUTHEAST VIRGINIA

CITY           SKY/WX    TMP DP  RH WIND       PRES   REMARKS
NORFOLK        CLOUDY    78  73  84 SW13      29.97R
VIRGINIA BEACH CLOUDY    77  70  79 SW10      29.97S
NORFOLK NAVAL  CLOUDY    78  71  79 SW9       29.98S
WEST POINT*    CLOUDY    75  73  93 S5        29.95F
SALUDA*        CLOUDY    74  74 100 SW7       29.93F
NEWPORT NEWS   LGT RAIN  76  71  85 SW10      29.95F
LANGLEY AFB    LGT RAIN  77  72  83 S10       29.95F
FORT EUSTIS    MOSUNNY   77  72  83 S6        29.93F
WILLIAMSBURG*  MOSUNNY   77  73  88 S3        29.96F
HR EXEC AP*    FAIR      77  72  83 SW8       29.95F
FRANKLIN*      CLOUDY    75  72  88 S8        29.98S
US460-WAKEFLD  CLOUDY    77  73  87 VRB5      29.96F
$$

VAZ020-022-025-037-045-231400-
WEST CENTRAL AND SOUTHWEST VIRGINIA

CITY           SKY/WX    TMP DP  RH WIND       PRES   REMARKS
STAUNTON*      CLOUDY    74  69  85 SW12G17   29.92F
WAYNESBORO*    PTSUNNY   74  71  89 SW9G20    29.92F
HOT SPRINGS VA CLOUDY    64  63  94 W18G25    30.04S FOG
LYNCHBURG      CLOUDY    73  71  93 S9        29.95F
DANVILLE       CLOUDY    73  73 100 S5        29.97F
SOUTH BOSTON*  CLOUDY    74  73  95 S7        29.96F
MARTINSVILLE   CLOUDY    73  71  93 CALM      30.00S
ROANOKE        CLOUDY    74  71  91 SE3       29.97S
BLACKSBURG     LGT RAIN  72  69  92 W3        30.03S
DUBLIN*        LGT RAIN  72  67  83 SW7       30.01F
MARION*        CLOUDY    71  67  88 SW3       30.05S
HILLSVILLE*    CLOUDY    69  65  85 S6        30.04S
RICHLANDS*     LGT RAIN  69  67  93 SW13G24   30.04R
WISE*          LGT RAIN  68  68 100 SW21G32   30.03S
ABINGDON*      CLOUDY    73  71  95 W6        30.02R
$$

MDZ021>025-VAZ099-100-231400-
SOUTHERN MARYLAND AND THE DELMARVA PENINSULA

CITY           SKY/WX    TMP DP  RH WIND       PRES   REMARKS
PATUXENT RIVER LGT RAIN  74  72  93 SW9       29.90F
BAY BRIDGE APT CLOUDY    73  72  94 S13       29.87F
LEONARDTOWN    CLOUDY    72  70  94 SW6       29.91F
DOVER          RAIN      73  73 100 SW20      29.88R FOG
GEORGETOWN     RAIN      73  71  93 SW10G21   29.93R FOG
EASTON         RAIN      73  72  94 S9        29.93F
CAMBRIDGE      CLOUDY    73  72  94 S6        29.90F
SALISBURY      LGT RAIN  72  72 100 S8        29.93S FOG
OCEAN CITY     CLOUDY    77  70  79 W17G26    29.94R
WALLOPS ISLAND LGT RAIN  74  72  93 SW6       29.95S
ACCOMACK*      CLOUDY    77  72  86 SW6       29.96R
$$

NCZ012>017-030>032-231400-
NORTH CENTRAL AND EASTERN NORTH CAROLINA

CITY           SKY/WX    TMP DP  RH WIND       PRES   REMARKS
ROANOKE RAPIDS DRIZZLE   75  73  94 SW8       29.99F
RALEIGH        CLOUDY    76  74  93 SW9       30.01S
ELIZABETH CITY PTSUNNY   79  77  94 SW10      29.99F
AHOSKIE*       LGT RAIN  76  74  95 CALM      30.00S
EDENTON*       CLOUDY    80  75  86 SW6       30.01S
CURRITUCK*     CLOUDY    78  76  94 SW9       29.99F
KILL DEVIL HLS MOSUNNY   79  73  83 SW5       30.00S
MANTEO         CLOUDY    79  74  85 W13       30.01S
CAPE HATTERAS  CLOUDY    80  76  87 SW9       30.04R
TARBORO*       NOT AVBL
GOLDSBORO      LGT RAIN  79  79 100 SW12      30.01S
WASHINGTON     CLOUDY    79  75  89 SW8       30.02S
GREENVILLE     CLOUDY    79  77  94 SW8       30.03F FOG
NEW BERN       CLOUDY    80  77  90 SW8       30.04S
WILMINGTON     CLOUDY    81  77  88 SW13      30.05R
$$

VAZ048-231400-
ELSEWHERE

CITY           SKY/WX    TMP DP  RH WIND       PRES   REMARKS
HARRISBURG PA  LGT RAIN  73  71  93 S9G16     29.80F FOG
BALTIMORE      CLOUDY    73  73 100 S8        29.85F
ANNAPOLIS      CLOUDY    74  74 100 S8        29.86F
ANDREWS AFB    CLOUDY    73  72  94 S12G20    29.86S
PHILADELPHIA   LGT RAIN  77  72  84 SW16G22   29.84F
HENDERSON NC   CLOUDY    72  70  94 SW8       29.99F
GREENSBORO     CLOUDY    75  75 100 SW15      29.99F
ROCKY MOUNT    CLOUDY    76  76 100 S9        30.00F
$$

VAZ100-231400-
MARINE

STATION/POSITION TIME  TEMP    WIND        PRES    WAVE   SWELL
                       AIR SEA DIR/SP/G            HT/PER HT/PER
                 (UTC) (F)     (DEG/KT/KT) (MB)    (FT/S) (FT/S)
BRANDYWINE LGT   1242   75     250/ 29/ 32 1012.3R
CAPE MAY NJ      1248   73 68  240/ 19/ 23 1012.0S
LEWES DE         1248          270/ 18/ 28   N/A
15NM E FENWICK I 1150   71 68  200/ 14/ 14 1012.9    2/ 6   2/ 6
OCEAN-CITY-INLET 1248   76 65  290/ 16/ 23 1013.7R
WACHAPREAGUE VA  1248   76 77  230/  5/  9 1014.0F
THOMAS POINT MD  1300   74 78  200/ 18/ 20   N/A
GOOSES REEF MD   1250   75     240/ 17/ 23 1012.9F
COVE POINT MD    1248   73     230/ 12/ 15 1013.0F
SOLOMONS ISLAND  1242   74 76  220/ 13/ 15   N/A
BISHOPS HEAD MD  1248   75 79  200/ 12/ 15 1013.1F
PINEY POINT MD   1242          210/  8/  9   N/A
POTOMAC MD       1250   75     210/ 12/ 14 1011.8F
CAMBRIDGE MD     1248   73 81              1013.0F
LEWISETTA VA     1248   75 78  220/ 10/ 12 1012.5F
RAPPAHANNOCK LGT 1248          220/ 12/ 13 1015.1R
STINGRAY PT      1250   75     230/ 10/ 14 1013.6F
YORK RVR RNG VA  1248   77     240/ 12/ 15 1014.7R
YORKTOWN VA      1248   76 77  200/  7/ 10 1013.7F
JAMESTOWN VA     1250   76     200/  8/ 10   N/A
DOMINION TERM VA 1248   77     230/  8/ 11 1014.9R
KIPTOPEKE VA     1248      76  230/  7/  9   N/A
CHES BAY BRIDGE  1248   76 72  240/ 12/ 13 1014.7R
CAPE HENRY VA    1248   76     210/  7/ 11   N/A
WILLOUBY STN VA  1248   76     220/ 13/ 14 1014.7R
S CRANEY ISL VA  1248   77     210/  8/ 11 1014.7R
CAPE HENRY BUOY  1230      72                N/A     2/ 8
1ST LANDING BUOY 1250   77                 1015.0R
CAPE CHARLES BUO 1251      66                N/A     2/ 9
64NM E OF VA BCH 1250   73 72  230/  8/  8 1015.8R   3/ 8   3/ 8
DUCK PIER NC     1248   78 63  230/ 12/ 15 1015.5S
44100 DUCK FRF   1235      68                N/A     2/ 8
OREGON INLET NC  1242   79 78  220/ 12/ 15 1016.2R
HATTERAS NC      1248   79 79  230/  6/  8 1016.9R
DIAMOND SHLS NC  1250   80 80  240/ 14/ 16 1017.0R   3/ 8   2/ 8
CAPE LOOKOUT NC  1300   81     240/  8/ 11 1016.9S
$$




USA.gov is the U.S. government's official web portal to all federal, state and local government web resources and services.